Tracking 32418 objects as of 9-Dec-2025
HD Live streaming from Space Station
objects crossing your sky now

CZ-2D DEB

Track CZ-2D DEB now!
10-day predictions


NORAD ID: 43413
Int'l Code: 2013-068B
Perigee: 652.9 km
Apogee: 807.8 km
Inclination: 97.9 °
Period: 99.3 minutes
Semi major axis: 7101 km
RCS: Unknown
Launch date: November 25, 2013
Source: People's Republic of China (PRC)
Launch site: Jiuquan Satellite Launch Center, China (JSC)

Note: This is SATELLITE DEBRIS
Your satellite tracking list
Your tracking list is empty




NASA's NSSDC Master Catalog

Two Line Element Set (TLE):
1 43413U 13068B   25342.83925594  .00007955  00000-0  18819-2 0  9999
2 43413  97.9397 117.5920 0109059 176.7644 183.4282 14.50740227624478
Source of the keplerian elements: AFSPC